Hourly Data Report for October 25, 2013

All times are specified in Local Standard Time (LST). Add 1 hour to adjust for Daylight Saving Time where and when it is observed.

KITCHENER/WATERLOO
ONTARIO

43°27'39.000" N
80°22'43.000" W
321.60 m
6144239
71368
YKF

Download Data

Hourly Data (October 2013)
Hourly Data Report for October 25, 2013
Temp Definition
°C
Dew Point Temp Definition
°C
Rel Hum Definition
%
Wind Dir Definition
10's deg

Wind Spd Definition
km/h
Visibility Definition
km
Stn Press Definition
kPa
Hmdx Definition


Wind Chill Definition


Weather Definition


TIME
00:00 Legend Double Dagger 2.0 1.1 94 28 15 16.1 97.94     LegendNANA
01:00 Legend Double Dagger 2.1 1.2 93 28 15 16.1 98.00     LegendNANA
02:00 Legend Double Dagger 2.1 1.2 94 29 15 16.1 98.03     LegendNANA
03:00 Legend Double Dagger 1.9 1.2 95 27 11 16.1 98.05     LegendNANA
04:00 Legend Double Dagger 1.3 0.7 96 27 9 16.1 98.08     LegendNANA
05:00 Legend Double Dagger 1.4 1.0 97 29 17 16.1 98.14     LegendNANA
06:00 Legend Double Dagger 1.4 1.0 97 28 13 16.1 98.19     LegendNANA
07:00 Legend Double Dagger 0.6 0.3 98 30 9 16.1 98.24     LegendNANA
08:00 Legend Double Dagger 2.0 1.3 95 29 15 16.1 98.33     LegendNANA
09:00 Legend Double Dagger 3.7 1.9 88 29 21 16.1 98.39     LegendNANA
10:00 Legend Double Dagger 4.7 2.5 86 26 18 16.1 98.41     LegendNANA
11:00 Legend Double Dagger 5.6 2.1 78 29 22 16.1 98.41     LegendNANA
12:00 Legend Double Dagger 6.7 1.9 71 27 26 16.1 98.37     LegendNANA
13:00 Legend Double Dagger 5.3 2.8 84 28 9 16.1 98.35     LegendNANA
14:00 Legend Double Dagger 6.2 2.2 75 26 26 16.1 98.31     LegendNANA
15:00 Legend Double Dagger 5.2 2.0 80 28 28 16.1 98.31     LegendNANA
16:00 Legend Double Dagger 4.6 1.5 80 28 22 16.1 98.31     LegendNANA
17:00 Legend Double Dagger 5.0 0.8 74 25 15 16.1 98.27     LegendNANA
18:00 Legend Double Dagger 5.0 0.3 72 24 17 16.1 98.26     LegendNANA
19:00 Legend Double Dagger 4.5 -0.1 72 22 13 16.1 98.22     LegendNANA
20:00 Legend Double Dagger 4.1 -1.2 68 21 18 16.1 98.17     LegendNANA
21:00 Legend Double Dagger 2.8 -1.6 73 21 18 16.1 98.13     LegendNANA
22:00 Legend Double Dagger 2.3 -1.8 75 22 18 16.1 98.06     LegendNANA
23:00 Legend Double Dagger 3.1 -1.5 72 22 22 16.1 97.98     LegendNANA

Notes on Data Quality.

Legend

  • E = Estimated
  • M = Missing
  • NA = Not Available
  • ‡ = Partner data that is not subject to review by the National Climate Archives
Date modified: